Tracking 31027 objects as of 18-Jul-2025
HD Live streaming from Space Station
objects crossing your sky now

PEGASUS R/B

Track PEGASUS R/B now!
10-day predictions


NORAD ID: 27371
Int'l Code: 2002-004B
Perigee: 452.2 km
Apogee: 461.0 km
Inclination: 38.0 °
Period: 93.6 minutes
Semi major axis: 6827 km
RCS: 0.9141 m2 (medium)
Launch date: February 5, 2002
Source: United States (US)
Launch site: Pegasus launched from Eastern Range Air Space (ERAS)

Note: This is a ROCKET BODY
Your satellite tracking list
Your tracking list is empty




NASA's NSSDC Master Catalog

Two Line Element Set (TLE):
1 27371U 02004B   25199.42740294  .00012795  00000-0  32755-3 0  9993
2 27371  38.0200  97.5549 0006500 343.7055  16.3508 15.38863827289825
Source of the keplerian elements: AFSPC